owner,sensor,date,latitude,longitude,vertical_datum,direction_of_sea_water_velocity,sea_water_speed,upward_sea_water_velocity,qcFlag 
TABS,ioos:station:wmo:42045:1,2017-08-24T13:00:00Z,26.2168,-96.4998,2.0,238.6071236,25.66719696,-99999.0,'11111222,11111222,99999999' 
TABS,ioos:station:wmo:42045:1,2017-08-24T13:30:00Z,26.2168,-96.4998,2.0,229.9342843,25.97638928,-99999.0,'11111222,11111222,99999999' 
TABS,ioos:station:wmo:42045:1,2017-08-24T14:00:00Z,26.2168,-96.4998,2.0,230.3649508,25.33348969,-99999.0,'11111222,11111222,99999999' 
TABS,ioos:station:wmo:42045:1,2017-08-24T14:30:00Z,26.2168,-96.4998,2.0,232.4724851,26.15172078,-99999.0,'11111222,11111222,99999999' 
TABS,ioos:station:wmo:42045:1,2017-08-24T15:00:00Z,26.2168,-96.4998,2.0,227.8297091,27.49756353,-99999.0,'11111222,11111222,99999999' 
TABS,ioos:station:wmo:42045:1,2017-08-24T15:30:00Z,26.2168,-96.4998,2.0,229.4661667,28.42007917,-99999.0,'11111222,11111222,99999999' 
TABS,ioos:station:wmo:42045:1,2017-08-24T16:00:00Z,26.2168,-96.4998,2.0,224.8575759,31.36028221,-99999.0,'11111222,11111222,99999999' 
TABS,ioos:station:wmo:42045:1,2017-08-24T16:30:00Z,26.2168,-96.4998,2.0,227.5961538,33.2469382,-99999.0,'11111222,11111222,99999999' 
TABS,ioos:station:wmo:42045:1,2017-08-24T17:00:00Z,26.2168,-96.4998,2.0,231.5580755,34.85511297,-99999.0,'11111222,11111222,99999999' 
TABS,ioos:station:wmo:42045:1,2017-08-24T17:30:00Z,26.2168,-96.4998,2.0,233.6631459,35.01951742,-99999.0,'11111222,11111222,99999999' 
TABS,ioos:station:wmo:42045:1,2017-08-24T18:00:00Z,26.2168,-96.4998,2.0,236.0643233,34.33903027,-99999.0,'11111222,11111222,99999999' 
TABS,ioos:station:wmo:42045:1,2017-08-24T18:30:00Z,26.2168,-96.4998,2.0,235.992818,35.11583261,-99999.0,'11111222,11111222,99999999' 
TABS,ioos:station:wmo:42045:1,2017-08-24T19:00:00Z,26.2168,-96.4998,2.0,232.2262389,35.13236827,-99999.0,'11111222,11111222,99999999' 
TABS,ioos:station:wmo:42045:1,2017-08-24T19:30:00Z,26.2168,-96.4998,2.0,229.8910922,36.07361501,-99999.0,'11111222,11111222,99999999' 
TABS,ioos:station:wmo:42045:1,2017-08-24T20:00:00Z,26.2168,-96.4998,2.0,233.6575172,32.78739087,-99999.0,'11111222,11111222,99999999' 
TABS,ioos:station:wmo:42045:1,2017-08-24T20:30:00Z,26.2168,-96.4998,2.0,235.4129894,34.73957973,-99999.0,'11111222,11111222,99999999' 
TABS,ioos:station:wmo:42045:1,2017-08-24T21:00:00Z,26.2168,-96.4998,2.0,236.8909932,31.15911424,-99999.0,'11111222,11111222,99999999' 
TABS,ioos:station:wmo:42045:1,2017-08-24T21:30:00Z,26.2168,-96.4998,2.0,236.3297507,31.52916111,-99999.0,'11111222,11111222,99999999' 
TABS,ioos:station:wmo:42045:1,2017-08-24T22:00:00Z,26.2168,-96.4998,2.0,231.3725269,27.39288229,-99999.0,'11111222,11111222,99999999' 
TABS,ioos:station:wmo:42045:1,2017-08-24T22:30:00Z,26.2168,-96.4998,2.0,239.2256149,27.96814259,-99999.0,'11111222,11111222,99999999' 
TABS,ioos:station:wmo:42045:1,2017-08-24T23:00:00Z,26.2168,-96.4998,2.0,235.7600636,27.76124817,-99999.0,'11111222,11111222,99999999' 
TABS,ioos:station:wmo:42045:1,2017-08-24T23:30:00Z,26.2168,-96.4998,2.0,237.4240811,26.52246029,-99999.0,'11111222,11111222,99999999' 
TABS,ioos:station:wmo:42045:1,2017-08-25T00:00:00Z,26.2168,-96.4998,2.0,241.7018376,26.32608592,-99999.0,'11111222,11111222,99999999' 
TABS,ioos:station:wmo:42045:1,2017-08-25T00:30:00Z,26.2168,-96.4998,2.0,237.1344706,27.54926678,-99999.0,'11111222,11111222,99999999' 
TABS,ioos:station:wmo:42045:1,2017-08-25T01:00:00Z,26.2168,-96.4998,2.0,232.4756944,25.05363247,-99999.0,'11111222,11111222,99999999' 
TABS,ioos:station:wmo:42045:1,2017-08-25T01:30:00Z,26.2168,-96.4998,2.0,242.9597751,24.28453211,-99999.0,'11111222,11111222,99999999' 
TABS,ioos:station:wmo:42045:1,2017-08-25T02:00:00Z,26.2168,-96.4998,2.0,236.1788781,29.17730625,-99999.0,'11111222,11111222,99999999' 
TABS,ioos:station:wmo:42045:1,2017-08-25T02:30:00Z,26.2168,-96.4998,2.0,232.6145329,27.80112408,-99999.0,'11111222,11111222,99999999' 
TABS,ioos:station:wmo:42045:1,2017-08-25T03:00:00Z,26.2168,-96.4998,2.0,237.137786,26.09582342,-99999.0,'11111222,11111222,99999999' 
TABS,ioos:station:wmo:42045:1,2017-08-25T03:30:00Z,26.2168,-96.4998,2.0,237.7110699,31.52472204,-99999.0,'11111222,11111222,99999999' 
TABS,ioos:station:wmo:42045:1,2017-08-25T04:00:00Z,26.2168,-96.4998,2.0,235.3536135,30.2547864,-99999.0,'11111222,11111222,99999999' 
TABS,ioos:station:wmo:42045:1,2017-08-25T04:30:00Z,26.2168,-96.4998,2.0,238.6083895,33.32824778,-99999.0,'11111222,11111222,99999999' 
TABS,ioos:station:wmo:42045:1,2017-08-25T05:00:00Z,26.2168,-96.4998,2.0,233.2833749,33.57012064,-99999.0,'11111222,11111222,99999999' 
TABS,ioos:station:wmo:42045:1,2017-08-25T05:30:00Z,26.2168,-96.4998,2.0,236.5765991,32.73321402,-99999.0,'11111222,11111222,99999999' 
TABS,ioos:station:wmo:42045:1,2017-08-25T06:00:00Z,26.2168,-96.4998,2.0,243.77061,35.84031389,-99999.0,'11111222,11111222,99999999' 
TABS,ioos:station:wmo:42045:1,2017-08-25T06:30:00Z,26.2168,-96.4998,2.0,244.9543359,37.77153028,-99999.0,'11111222,11111222,99999999' 
TABS,ioos:station:wmo:42045:1,2017-08-25T07:00:00Z,26.2168,-96.4998,2.0,244.2343876,34.92183987,-99999.0,'11111222,11111222,99999999' 
TABS,ioos:station:wmo:42045:1,2017-08-25T07:30:00Z,26.2168,-96.4998,2.0,242.4404851,34.79845543,-99999.0,'11111222,11111222,99999999' 
TABS,ioos:station:wmo:42045:1,2017-08-25T08:00:00Z,26.2168,-96.4998,2.0,241.3113085,34.6425894,-99999.0,'11111222,11111222,99999999' 
TABS,ioos:station:wmo:42045:1,2017-08-25T08:30:00Z,26.2168,-96.4998,2.0,238.7036625,39.04059426,-99999.0,'11111222,11111222,99999999' 
TABS,ioos:station:wmo:42045:1,2017-08-25T09:00:00Z,26.2168,-96.4998,2.0,232.6465628,41.50147588,-99999.0,'11111222,11111222,99999999' 
TABS,ioos:station:wmo:42045:1,2017-08-25T09:30:00Z,26.2168,-96.4998,2.0,230.5730561,41.42723862,-99999.0,'11111222,11111222,99999999' 
TABS,ioos:station:wmo:42045:1,2017-08-25T10:00:00Z,26.2168,-96.4998,2.0,221.7059813,45.78300995,-99999.0,'11111222,11111222,99999999' 
TABS,ioos:station:wmo:42045:1,2017-08-25T10:30:00Z,26.2168,-96.4998,2.0,220.3637662,46.89317434,-99999.0,'11111222,11111222,99999999' 
TABS,ioos:station:wmo:42045:1,2017-08-25T11:00:00Z,26.2168,-96.4998,2.0,207.0361171,52.73273936,-99999.0,'11111222,11111222,99999999' 
TABS,ioos:station:wmo:42045:1,2017-08-25T11:30:00Z,26.2168,-96.4998,2.0,202.2098228,55.7137326,-99999.0,'11111222,11111222,99999999' 
TABS,ioos:station:wmo:42045:1,2017-08-25T12:00:00Z,26.2168,-96.4998,2.0,201.8646023,60.36216365,-99999.0,'11111222,11111222,99999999' 
TABS,ioos:station:wmo:42045:1,2017-08-25T12:30:00Z,26.2168,-96.4998,2.0,192.6265499,70.40271373,-99999.0,'11111222,11111222,99999999' 
TABS,ioos:station:wmo:42045:1,2017-08-25T13:00:00Z,26.2168,-96.4998,2.0,190.5598103,79.12002528,-99999.0,'11111222,11111222,99999999' 
TABS,ioos:station:wmo:42045:1,2017-08-25T13:30:00Z,26.2168,-96.4998,2.0,183.9809553,88.72409876,-99999.0,'11111222,11111222,99999999' 
TABS,ioos:station:wmo:42045:1,2017-08-25T14:00:00Z,26.2168,-96.4998,2.0,178.6287532,97.79799845,-99999.0,'11111222,11111222,99999999' 
TABS,ioos:station:wmo:42045:1,2017-08-25T14:30:00Z,26.2168,-96.4998,2.0,178.0205365,100.4699408,-99999.0,'11111222,11111222,99999999' 
TABS,ioos:station:wmo:42045:1,2017-08-25T15:00:00Z,26.2168,-96.4998,2.0,174.9511151,104.9973604,-99999.0,'11111222,11111222,99999999' 
TABS,ioos:station:wmo:42045:1,2017-08-25T15:30:00Z,26.2168,-96.4998,2.0,171.4078134,111.0462431,-99999.0,'11111222,11111222,99999999' 
TABS,ioos:station:wmo:42045:1,2017-08-25T16:00:00Z,26.2168,-96.4998,2.0,172.0317889,106.9828556,-99999.0,'11111222,11111222,99999999' 
TABS,ioos:station:wmo:42045:1,2017-08-25T16:30:00Z,26.2168,-96.4998,2.0,166.6011972,108.3182667,-99999.0,'11111222,11111222,99999999' 
TABS,ioos:station:wmo:42045:1,2017-08-25T17:00:00Z,26.2168,-96.4998,2.0,169.2730572,107.132027,-99999.0,'11111222,11111222,99999999' 
TABS,ioos:station:wmo:42045:1,2017-08-25T17:30:00Z,26.2168,-96.4998,2.0,165.5934723,106.6330122,-99999.0,'11111222,11111222,99999999' 
TABS,ioos:station:wmo:42045:1,2017-08-25T18:00:00Z,26.2168,-96.4998,2.0,164.1110322,104.284191,-99999.0,'11111222,11111222,99999999' 
TABS,ioos:station:wmo:42045:1,2017-08-25T18:30:00Z,26.2168,-96.4998,2.0,163.7295007,104.1512016,-99999.0,'11111222,11111222,99999999' 
TABS,ioos:station:wmo:42045:1,2017-08-25T19:00:00Z,26.2168,-96.4998,2.0,163.5020758,101.5924731,-99999.0,'11111222,11111222,99999999' 
TABS,ioos:station:wmo:42045:1,2017-08-25T19:30:00Z,26.2168,-96.4998,2.0,165.4486135,99.30537196,-99999.0,'11111222,11111222,99999999' 
TABS,ioos:station:wmo:42045:1,2017-08-25T20:00:00Z,26.2168,-96.4998,2.0,165.8269332,101.6954768,-99999.0,'11111222,11111222,99999999' 
TABS,ioos:station:wmo:42045:1,2017-08-25T20:30:00Z,26.2168,-96.4998,2.0,163.6517285,101.4309193,-99999.0,'11111222,11111222,99999999' 
TABS,ioos:station:wmo:42045:1,2017-08-25T21:00:00Z,26.2168,-96.4998,2.0,165.1231814,99.05007723,-99999.0,'11111222,11111222,99999999' 
TABS,ioos:station:wmo:42045:1,2017-08-25T21:30:00Z,26.2168,-96.4998,2.0,167.2251912,96.82671635,-99999.0,'11111222,11111222,99999999' 
TABS,ioos:station:wmo:42045:1,2017-08-25T22:00:00Z,26.2168,-96.4998,2.0,169.9519442,96.52039784,-99999.0,'11111222,11111222,99999999' 
TABS,ioos:station:wmo:42045:1,2017-08-25T22:30:00Z,26.2168,-96.4998,2.0,167.4061087,93.83766834,-99999.0,'11111222,11111222,99999999' 
TABS,ioos:station:wmo:42045:1,2017-08-25T23:00:00Z,26.2168,-96.4998,2.0,171.8618798,93.17828985,-99999.0,'11111222,11111222,99999999' 
TABS,ioos:station:wmo:42045:1,2017-08-25T23:30:00Z,26.2168,-96.4998,2.0,170.7110347,88.47007686,-99999.0,'11111222,11111222,99999999' 
TABS,ioos:station:wmo:42045:1,2017-08-26T00:00:00Z,26.2168,-96.4998,2.0,174.0426157,87.3919407,-99999.0,'11111222,11111222,99999999' 
TABS,ioos:station:wmo:42045:1,2017-08-26T00:30:00Z,26.2168,-96.4998,2.0,173.158636,85.12608296,-99999.0,'11111222,11111222,99999999' 
TABS,ioos:station:wmo:42045:1,2017-08-26T01:00:00Z,26.2168,-96.4998,2.0,175.0729323,81.62158109,-99999.0,'11111222,11111222,99999999' 
TABS,ioos:station:wmo:42045:1,2017-08-26T01:30:00Z,26.2168,-96.4998,2.0,176.9359556,77.27045037,-99999.0,'11111222,11111222,99999999' 
TABS,ioos:station:wmo:42045:1,2017-08-26T02:00:00Z,26.2168,-96.4998,2.0,179.4360129,73.17354235,-99999.0,'11111222,11111222,99999999' 
TABS,ioos:station:wmo:42045:1,2017-08-26T02:30:00Z,26.2168,-96.4998,2.0,179.8498839,72.62024855,-99999.0,'11111222,11111222,99999999' 
TABS,ioos:station:wmo:42045:1,2017-08-26T03:00:00Z,26.2168,-96.4998,2.0,184.6819702,70.68589251,-99999.0,'11111222,11111222,99999999' 
TABS,ioos:station:wmo:42045:1,2017-08-26T03:30:00Z,26.2168,-96.4998,2.0,183.2999318,70.52695726,-99999.0,'11111222,11111222,99999999' 
TABS,ioos:station:wmo:42045:1,2017-08-26T04:00:00Z,26.2168,-96.4998,2.0,188.988503,68.42026381,-99999.0,'11111222,11111222,99999999' 
TABS,ioos:station:wmo:42045:1,2017-08-26T04:30:00Z,26.2168,-96.4998,2.0,191.1268319,60.83357379,-99999.0,'11111222,11111222,99999999' 
TABS,ioos:station:wmo:42045:1,2017-08-26T05:00:00Z,26.2168,-96.4998,2.0,192.1690093,59.62993376,-99999.0,'11111222,11111222,99999999' 
TABS,ioos:station:wmo:42045:1,2017-08-26T05:30:00Z,26.2168,-96.4998,2.0,193.5879348,55.20522167,-99999.0,'11111222,11111222,99999999' 
TABS,ioos:station:wmo:42045:1,2017-08-26T06:00:00Z,26.2168,-96.4998,2.0,200.2551148,52.85885073,-99999.0,'11111222,11111222,99999999' 
TABS,ioos:station:wmo:42045:1,2017-08-26T06:30:00Z,26.2168,-96.4998,2.0,205.3633058,50.12130286,-99999.0,'11111222,11111222,99999999' 
TABS,ioos:station:wmo:42045:1,2017-08-26T07:00:00Z,26.2168,-96.4998,2.0,206.6431354,45.78129858,-99999.0,'11111222,11111222,99999999' 
TABS,ioos:station:wmo:42045:1,2017-08-26T07:30:00Z,26.2168,-96.4998,2.0,210.1199123,44.4984157,-99999.0,'11111222,11111222,99999999' 
TABS,ioos:station:wmo:42045:1,2017-08-26T08:00:00Z,26.2168,-96.4998,2.0,208.7457294,39.13270371,-99999.0,'11111222,11111222,99999999' 
TABS,ioos:station:wmo:42045:1,2017-08-26T08:30:00Z,26.2168,-96.4998,2.0,211.358533,35.3192582,-99999.0,'11111222,11111222,99999999' 
TABS,ioos:station:wmo:42045:1,2017-08-26T09:00:00Z,26.2168,-96.4998,2.0,220.8187627,29.67847031,-99999.0,'11111222,11111222,99999999' 
TABS,ioos:station:wmo:42045:1,2017-08-26T09:30:00Z,26.2168,-96.4998,2.0,233.9201081,29.86884162,-99999.0,'11111222,11111222,99999999' 
TABS,ioos:station:wmo:42045:1,2017-08-26T10:00:00Z,26.2168,-96.4998,2.0,237.9253471,21.14803301,-99999.0,'11111222,11111222,99999999' 
TABS,ioos:station:wmo:42045:1,2017-08-26T10:30:00Z,26.2168,-96.4998,2.0,242.1515029,16.97601249,-99999.0,'11111222,11111222,99999999' 
TABS,ioos:station:wmo:42045:1,2017-08-26T11:00:00Z,26.2168,-96.4998,2.0,265.9284624,14.08554223,-99999.0,'11111222,11111222,99999999' 
TABS,ioos:station:wmo:42045:1,2017-08-26T11:30:00Z,26.2168,-96.4998,2.0,280.4416303,7.890659035,-99999.0,'11133222,11111222,99999999' 
TABS,ioos:station:wmo:42045:1,2017-08-26T12:00:00Z,26.2168,-96.4998,2.0,313.4800054,15.72451907,-99999.0,'11111222,11111222,99999999' 
TABS,ioos:station:wmo:42045:1,2017-08-26T12:30:00Z,26.2168,-96.4998,2.0,322.0827209,16.51676118,-99999.0,'11111222,11111222,99999999' 
TABS,ioos:station:wmo:42045:1,2017-08-26T13:00:00Z,26.2168,-96.4998,2.0,8.413128951,13.46489138,-99999.0,'11111222,11111222,99999999' 
TABS,ioos:station:wmo:42045:1,2017-08-26T13:30:00Z,26.2168,-96.4998,2.0,6.953151668,17.76061373,-99999.0,'11111222,11111222,99999999' 
TABS,ioos:station:wmo:42045:1,2017-08-26T14:00:00Z,26.2168,-96.4998,2.0,11.68684955,21.47518102,-99999.0,'11111222,11111222,99999999' 
TABS,ioos:station:wmo:42045:1,2017-08-26T14:30:00Z,26.2168,-96.4998,2.0,16.19260869,21.98201538,-99999.0,'11111222,11111222,99999999' 
TABS,ioos:station:wmo:42045:1,2017-08-26T15:00:00Z,26.2168,-96.4998,2.0,33.65896691,20.35195322,-99999.0,'11111222,11111222,99999999' 
TABS,ioos:station:wmo:42045:1,2017-08-26T15:30:00Z,26.2168,-96.4998,2.0,32.52725227,18.85814413,-99999.0,'11111222,11111222,99999999' 
TABS,ioos:station:wmo:42045:1,2017-08-26T16:00:00Z,26.2168,-96.4998,2.0,34.05672213,21.67812723,-99999.0,'11111222,11111222,99999999' 
TABS,ioos:station:wmo:42045:1,2017-08-26T16:30:00Z,26.2168,-96.4998,2.0,35.71884588,25.3851236,-99999.0,'11111222,11111222,99999999' 
TABS,ioos:station:wmo:42045:1,2017-08-26T17:00:00Z,26.2168,-96.4998,2.0,44.87230846,28.53182959,-99999.0,'11111222,11111222,99999999' 
TABS,ioos:station:wmo:42045:1,2017-08-26T17:30:00Z,26.2168,-96.4998,2.0,49.45676799,34.30648481,-99999.0,'11111222,11111222,99999999' 
TABS,ioos:station:wmo:42045:1,2017-08-26T18:00:00Z,26.2168,-96.4998,2.0,51.92551569,37.76634745,-99999.0,'11111222,11111222,99999999' 
TABS,ioos:station:wmo:42045:1,2017-08-26T18:30:00Z,26.2168,-96.4998,2.0,47.89893879,38.86990095,-99999.0,'11111222,11111222,99999999' 
TABS,ioos:station:wmo:42045:1,2017-08-26T19:00:00Z,26.2168,-96.4998,2.0,46.95986864,38.66600186,-99999.0,'11111222,11111222,99999999' 
TABS,ioos:station:wmo:42045:1,2017-08-26T19:30:00Z,26.2168,-96.4998,2.0,47.23021285,39.61384102,-99999.0,'11111222,11111222,99999999' 
TABS,ioos:station:wmo:42045:1,2017-08-26T20:00:00Z,26.2168,-96.4998,2.0,47.55079082,39.72218775,-99999.0,'11111222,11111222,99999999' 
TABS,ioos:station:wmo:42045:1,2017-08-26T20:30:00Z,26.2168,-96.4998,2.0,52.06713136,42.47331044,-99999.0,'11111222,11111222,99999999' 
TABS,ioos:station:wmo:42045:1,2017-08-26T21:00:00Z,26.2168,-96.4998,2.0,51.49407859,49.4541616,-99999.0,'11111222,11111222,99999999' 
TABS,ioos:station:wmo:42045:1,2017-08-26T21:30:00Z,26.2168,-96.4998,2.0,54.53057629,47.87429895,-99999.0,'11111222,11111222,99999999' 
TABS,ioos:station:wmo:42045:1,2017-08-26T22:00:00Z,26.2168,-96.4998,2.0,52.94147149,49.18426679,-99999.0,'11111222,11111222,99999999' 
TABS,ioos:station:wmo:42045:1,2017-08-26T22:30:00Z,26.2168,-96.4998,2.0,52.80309771,48.69679353,-99999.0,'11111222,11111222,99999999' 
TABS,ioos:station:wmo:42045:1,2017-08-26T23:00:00Z,26.2168,-96.4998,2.0,55.70418864,47.74016757,-99999.0,'11111222,11111222,99999999' 
TABS,ioos:station:wmo:42045:1,2017-08-26T23:30:00Z,26.2168,-96.4998,2.0,57.17396723,44.6972762,-99999.0,'11111222,11111222,99999999' 
TABS,ioos:station:wmo:42045:1,2017-08-27T00:00:00Z,26.2168,-96.4998,2.0,58.18514368,45.60136073,-99999.0,'11111222,11111222,99999999' 
TABS,ioos:station:wmo:42045:1,2017-08-27T00:30:00Z,26.2168,-96.4998,2.0,61.56005387,43.19265331,-99999.0,'11111222,11111222,99999999' 
TABS,ioos:station:wmo:42045:1,2017-08-27T01:00:00Z,26.2168,-96.4998,2.0,62.39639032,43.42263004,-99999.0,'11111222,11111222,99999999' 
TABS,ioos:station:wmo:42045:1,2017-08-27T01:30:00Z,26.2168,-96.4998,2.0,66.27985461,40.81829614,-99999.0,'11111222,11111222,99999999' 
TABS,ioos:station:wmo:42045:1,2017-08-27T02:00:00Z,26.2168,-96.4998,2.0,72.49711995,40.63115676,-99999.0,'11111222,11111222,99999999' 
TABS,ioos:station:wmo:42045:1,2017-08-27T02:30:00Z,26.2168,-96.4998,2.0,79.23821994,38.13064384,-99999.0,'11111222,11111222,99999999' 
TABS,ioos:station:wmo:42045:1,2017-08-27T03:00:00Z,26.2168,-96.4998,2.0,81.30162862,39.21099973,-99999.0,'11111222,11111222,99999999' 
TABS,ioos:station:wmo:42045:1,2017-08-27T03:30:00Z,26.2168,-96.4998,2.0,84.89107437,37.61945507,-99999.0,'11111222,11111222,99999999' 
TABS,ioos:station:wmo:42045:1,2017-08-27T04:00:00Z,26.2168,-96.4998,2.0,88.12926995,40.7417145,-99999.0,'11111222,11111222,99999999' 
TABS,ioos:station:wmo:42045:1,2017-08-27T04:30:00Z,26.2168,-96.4998,2.0,94.04024823,39.59841032,-99999.0,'11111222,11111222,99999999' 
TABS,ioos:station:wmo:42045:1,2017-08-27T05:00:00Z,26.2168,-96.4998,2.0,97.74346113,36.88635791,-99999.0,'11111222,11111222,99999999' 
TABS,ioos:station:wmo:42045:1,2017-08-27T05:30:00Z,26.2168,-96.4998,2.0,99.9030085,38.89959511,-99999.0,'11111222,11111222,99999999' 
TABS,ioos:station:wmo:42045:1,2017-08-27T06:00:00Z,26.2168,-96.4998,2.0,103.7850886,38.73573673,-99999.0,'11111222,11111222,99999999' 
TABS,ioos:station:wmo:42045:1,2017-08-27T06:30:00Z,26.2168,-96.4998,2.0,108.6751157,34.69681542,-99999.0,'11111222,11111222,99999999' 
TABS,ioos:station:wmo:42045:1,2017-08-27T07:00:00Z,26.2168,-96.4998,2.0,111.3522514,36.72052423,-99999.0,'11111222,11111222,99999999' 
TABS,ioos:station:wmo:42045:1,2017-08-27T07:30:00Z,26.2168,-96.4998,2.0,113.4576247,36.87778871,-99999.0,'11111222,11111222,99999999' 
TABS,ioos:station:wmo:42045:1,2017-08-27T08:00:00Z,26.2168,-96.4998,2.0,117.3654017,34.89500967,-99999.0,'11111222,11111222,99999999' 
TABS,ioos:station:wmo:42045:1,2017-08-27T08:30:00Z,26.2168,-96.4998,2.0,115.0318051,41.61918067,-99999.0,'11111222,11111222,99999999' 
TABS,ioos:station:wmo:42045:1,2017-08-27T09:00:00Z,26.2168,-96.4998,2.0,112.3394115,36.78044045,-99999.0,'11111222,11111222,99999999' 
TABS,ioos:station:wmo:42045:1,2017-08-27T09:30:00Z,26.2168,-96.4998,2.0,109.5818846,32.70134095,-99999.0,'11111222,11111222,99999999' 
TABS,ioos:station:wmo:42045:1,2017-08-27T10:00:00Z,26.2168,-96.4998,2.0,119.8653743,30.06236518,-99999.0,'11111222,11111222,99999999' 
TABS,ioos:station:wmo:42045:1,2017-08-27T10:30:00Z,26.2168,-96.4998,2.0,121.0236168,29.51149268,-99999.0,'11111222,11111222,99999999' 
TABS,ioos:station:wmo:42045:1,2017-08-27T11:00:00Z,26.2168,-96.4998,2.0,125.6367821,26.86021966,-99999.0,'11111222,11111222,99999999' 
TABS,ioos:station:wmo:42045:1,2017-08-27T11:30:00Z,26.2168,-96.4998,2.0,129.6593887,20.58839722,-99999.0,'11111222,11111222,99999999' 
TABS,ioos:station:wmo:42045:1,2017-08-27T12:00:00Z,26.2168,-96.4998,2.0,131.0878837,23.11260479,-99999.0,'11111222,11111222,99999999' 
TABS,ioos:station:wmo:42045:1,2017-08-27T12:30:00Z,26.2168,-96.4998,2.0,135.4810079,19.36833756,-99999.0,'11111222,11111222,99999999' 
TABS,ioos:station:wmo:42045:1,2017-08-27T13:00:00Z,26.2168,-96.4998,2.0,132.6432961,20.12006213,-99999.0,'11111222,11111222,99999999' 
TABS,ioos:station:wmo:42045:1,2017-08-27T13:30:00Z,26.2168,-96.4998,2.0,131.6140559,14.72645579,-99999.0,'11111222,11111222,99999999' 
TABS,ioos:station:wmo:42045:1,2017-08-27T14:00:00Z,26.2168,-96.4998,2.0,143.7196209,15.15880272,-99999.0,'11111222,11111222,99999999' 
TABS,ioos:station:wmo:42045:1,2017-08-27T14:30:00Z,26.2168,-96.4998,2.0,152.1913355,11.74659525,-99999.0,'11111222,11111222,99999999' 
TABS,ioos:station:wmo:42045:1,2017-08-27T15:00:00Z,26.2168,-96.4998,2.0,153.4881235,9.610624329,-99999.0,'11133222,11111222,99999999' 
TABS,ioos:station:wmo:42045:1,2017-08-27T15:30:00Z,26.2168,-96.4998,2.0,132.039538,12.18556933,-99999.0,'11111222,11111222,99999999' 
TABS,ioos:station:wmo:42045:1,2017-08-27T16:00:00Z,26.2168,-96.4998,2.0,143.6087607,10.77037604,-99999.0,'11111222,11111222,99999999' 
TABS,ioos:station:wmo:42045:1,2017-08-27T16:30:00Z,26.2168,-96.4998,2.0,149.7141287,9.854998732,-99999.0,'11133222,11111222,99999999' 
TABS,ioos:station:wmo:42045:1,2017-08-27T17:00:00Z,26.2168,-96.4998,2.0,139.1871956,8.231482248,-99999.0,'11133222,11111222,99999999' 
TABS,ioos:station:wmo:42045:1,2017-08-27T17:30:00Z,26.2168,-96.4998,2.0,141.4144816,3.607616942,-99999.0,'11133222,11111222,99999999' 
TABS,ioos:station:wmo:42045:1,2017-08-27T18:00:00Z,26.2168,-96.4998,2.0,62.94426795,2.0885641,-99999.0,'11133222,11111222,99999999' 
TABS,ioos:station:wmo:42045:1,2017-08-27T18:30:00Z,26.2168,-96.4998,2.0,29.61356733,3.784309712,-99999.0,'11133222,11111222,99999999' 
TABS,ioos:station:wmo:42045:1,2017-08-27T19:00:00Z,26.2168,-96.4998,2.0,29.13315022,6.388153098,-99999.0,'11133222,11111222,99999999' 
TABS,ioos:station:wmo:42045:1,2017-08-27T19:30:00Z,26.2168,-96.4998,2.0,16.64393843,8.902999495,-99999.0,'11133222,11111222,99999999' 
TABS,ioos:station:wmo:42045:1,2017-08-27T20:00:00Z,26.2168,-96.4998,2.0,22.24217709,13.76414545,-99999.0,'11111222,11111222,99999999' 
TABS,ioos:station:wmo:42045:1,2017-08-27T20:30:00Z,26.2168,-96.4998,2.0,10.92143783,12.72038521,-99999.0,'11111222,11111222,99999999' 
TABS,ioos:station:wmo:42045:1,2017-08-27T21:00:00Z,26.2168,-96.4998,2.0,9.414512188,19.624314,-99999.0,'11111222,11111222,99999999' 
TABS,ioos:station:wmo:42045:1,2017-08-27T21:30:00Z,26.2168,-96.4998,2.0,26.78727455,25.38403435,-99999.0,'11111222,11111222,99999999' 
TABS,ioos:station:wmo:42045:1,2017-08-27T22:00:00Z,26.2168,-96.4998,2.0,26.93472146,27.04356855,-99999.0,'11111222,11111222,99999999' 
TABS,ioos:station:wmo:42045:1,2017-08-27T22:30:00Z,26.2168,-96.4998,2.0,31.03685838,30.97438458,-99999.0,'11111222,11111222,99999999' 
TABS,ioos:station:wmo:42045:1,2017-08-27T23:00:00Z,26.2168,-96.4998,2.0,31.39868795,35.02959463,-99999.0,'11111222,11111222,99999999' 
TABS,ioos:station:wmo:42045:1,2017-08-27T23:30:00Z,26.2168,-96.4998,2.0,36.41695321,33.63905171,-99999.0,'11111222,11111222,99999999' 
TABS,ioos:station:wmo:42045:1,2017-08-28T00:00:00Z,26.2168,-96.4998,2.0,36.88352068,33.95600094,-99999.0,'11111222,11111222,99999999' 
TABS,ioos:station:wmo:42045:1,2017-08-28T00:30:00Z,26.2168,-96.4998,2.0,36.64369784,32.40425281,-99999.0,'11111222,11111222,99999999' 
TABS,ioos:station:wmo:42045:1,2017-08-28T01:00:00Z,26.2168,-96.4998,2.0,38.53604603,28.89221348,-99999.0,'11111222,11111222,99999999' 
TABS,ioos:station:wmo:42045:1,2017-08-28T01:30:00Z,26.2168,-96.4998,2.0,35.55460739,23.78426791,-99999.0,'11111222,11111222,99999999' 
TABS,ioos:station:wmo:42045:1,2017-08-28T02:00:00Z,26.2168,-96.4998,2.0,40.56241198,25.49692727,-99999.0,'11111222,11111222,99999999' 
TABS,ioos:station:wmo:42045:1,2017-08-28T02:30:00Z,26.2168,-96.4998,2.0,36.29371874,22.46913661,-99999.0,'11111222,11111222,99999999' 
TABS,ioos:station:wmo:42045:1,2017-08-28T03:00:00Z,26.2168,-96.4998,2.0,49.26735081,18.91096243,-99999.0,'11111222,11111222,99999999' 
TABS,ioos:station:wmo:42045:1,2017-08-28T03:30:00Z,26.2168,-96.4998,2.0,51.17343753,17.16200746,-99999.0,'11111222,11111222,99999999' 
TABS,ioos:station:wmo:42045:1,2017-08-28T04:00:00Z,26.2168,-96.4998,2.0,51.62759597,14.94914044,-99999.0,'11111222,11111222,99999999' 
TABS,ioos:station:wmo:42045:1,2017-08-28T04:30:00Z,26.2168,-96.4998,2.0,53.81366555,18.27530027,-99999.0,'11111222,11111222,99999999' 